Location: Unspecified
(0.0000°N, 0.0000°E)
Time: 05:24:11
(UTC+00:00)

Tianhe-1 - Pass Details

Date: 13 May 2021
Orbit: 360 x 384 km, 41.5° (Epoch: 18 May)

Event Time Altitude Azimuth Distance (km) Brightness Sun altitude
Rises 18:33:19 0° 263° (W) 2,202 6.2 -8.8°
Reaches altitude 10° 18:36:59 10° 308° (NW) 1,360 5.1 -9.6°
Maximum altitude 18:37:28 10° 317° (NW) 1,345 4.9 -9.7°
Drops below altitude 10° 18:37:56 10° 326° (NNW) 1,361 4.7 -9.8°
Sets 18:41:38 0° 12° (NNE) 2,215 5.0 -10.7°
